Miscellaneous Local Product
Issued by NWS North Platte, NE

Home | Current Version | Previous Version | Text Only | Print | Product List | Glossary On
Versions: 1 2 3 4 5 6 7 8 9 10 11 12 13 14 15 16 17 18 19 20 21 22 23 24 25 26 27 28 29 30 31 32 33 34 35 36 37 38 39 40 41 42 43 44 45 46 47 48 49 50
000
AXUS43 KLBF 270110
MISLBF


WESTERN AND NORTH CENTRAL NEBRASKA HOURLY WEATHER ROUNDUP
NATIONAL WEATHER SERVICE NORTH PLATTE NE
700 PM CST MON JAN 26 2015

***STATIONS NOT REPORTING VARIABLES SUCH AS SKY/WEATHER OR
PRESSURE ARE PROVIDED BY THE NEBRASKA DEPARTMENT OF
ROADS...RAWS...AND APRS NETWORKS...AND ARE NOT UNDER
NATIONAL WEATHER SERVICE QUALITY CONTROL***

...OBSERVATIONS IN AND NEAR THE EASTERN PANHANDLE OF NEBRASKA...

CITY           SKY/WX    TMP DP  RH WIND       PRES   REMARKS
PINE RIDGE     CLEAR     40  30  67 CALM      30.05S
CHADRON        CLEAR     45  33  63 SW10      30.05S
ALLIANCE       CLEAR     38  31  76 W8        30.08S WCI  32
SIDNEY         CLEAR     45  28  51 NW10      30.14R
WHITECLAY        N/A     37  28  72 SE6         N/A  WCI  32
CRESCENT LAKE    N/A     53  29  40 W6          N/A
LISCO            N/A     46  29  53 CALM        N/A
LEWELLEN         N/A     50  27  40 CALM        N/A
$$

...OBSERVATIONS IN NORTH CENTRAL NEBRASKA...

CITY           SKY/WX    TMP DP  RH WIND       PRES   REMARKS
VALENTINE      CLEAR     42  30  62 W7        30.02S
THEDFORD       CLEAR     46  32  58 CALM      30.06R
AINSWORTH      CLEAR     42  32  66 CALM      30.03S
O`NEILL        CLEAR     47  32  56 N7        30.02S
ORD            CLEAR     43  31  62 NW3       30.02R
BROKEN BOW     CLEAR     47  31  53 N8        30.03S
BROWNLEE         N/A     54  30  39 NW8         N/A
VALENTINE NWR    N/A     48  29  47 CALM        N/A
SPRINGVIEW       N/A     41  32  69 CALM        N/A
HALSEY           N/A     52  30  43 CALM        N/A
BREWSTER         N/A     46  31  57 W5          N/A
ROSE             N/A     51  36  57 CALM        N/A
NEWPORT          N/A     40  30  67 CALM        N/A
SARGENT          N/A     46  34  62 CALM        N/A
COMSTOCK         N/A     44  29  55 CALM        N/A
CHAMBERS         N/A     39  22  51 CALM        N/A
EWING            N/A     43  32  65 CALM        N/A
$$

...OBSERVATIONS IN SOUTHWEST NEBRASKA AND FAR NORTHEAST COLORADO...

CITY           SKY/WX    TMP DP  RH WIND       PRES   REMARKS
WRAY           FAIR      54  31  42 SW6       30.12F
HOLYOKE        FAIR      43  30  61 SW6       30.12S
IMPERIAL       CLEAR     51  29  42 W7        30.10S
OGALLALA       CLEAR     47  33  59 W5        30.08S
NORTH PLATTE   CLEAR     43  28  55 CALM      30.07R
MCCOOK         CLEAR     53  30  41 W9        30.07S
LEXINGTON      CLEAR     40  28  63 NW5       30.06R
BRADY            N/A     48  31  52 CALM        N/A
GOTHENBURG       N/A     51  27  39 CALM        N/A
CALLAWAY         N/A     38  27  63 W3          N/A
$$

...NORTH PLATTE AREA...

CITY           SKY/WX    TMP DP  RH WIND       PRES   REMARKS
AIRPORT        CLEAR     43  28  55 CALM      30.07R
DOWNTOWN         N/A     53  30  42 CALM        N/A
$$

...SOME WEATHER OBSERVATIONS FROM AROUND THE REGION...

CITY           SKY/WX    TMP DP  RH WIND       PRES   REMARKS
DENVER         CLEAR     54  24  31 S13       30.21S
LARAMIE        CLEAR     37  27  67 NE8       30.29F WCI  31
CHEYENNE       CLEAR     53  21  28 NW9       30.22S
SCOTTSBLUFF    CLEAR     50  33  52 W9        30.11S
RAPID CITY     CLEAR     51  29  42 SW3       30.00S
PIERRE         PTCLDY    37  28  70 N3        29.97F
WINNER         FAIR      50  31  48 SW5       30.01R
SIOUX FALLS    PTCLDY    38  32  79 W9        29.97R WCI  31
OMAHA          PTCLDY    48  34  58 NW12      29.99R
GRAND ISLAND   CLEAR     43  32  65 N5        30.04R
KANSAS CITY    CLEAR     52  33  48 NW3       29.97R
WICHITA        CLEAR     56  33  42 NW6       30.04R
HAYS           CLEAR     52  27  37 S5        30.07R
LIBERAL        CLEAR     52  28  40 NW9       30.18R
GOODLAND       CLEAR     44  30  57 W9        30.15R
$$



USA.gov is the U.S. government's official web portal to all federal, state and local government web resources and services.